Regional Weather Roundup
Issued by NWS

Home | Current Version | Previous Version | Text Only | Print | Product List | Glossary On
Versions: 1 2 3 4 5 6 7 8 9 10 11 12 13 14 15 16 17 18 19 20 21 22 23 24 25 26 27 28 29 30 31 32 33 34 35 36 37 38 39 40 41 42 43 44 45 46 47 48 49 50
000
ASUS43 KMPX 210210
RWRMN
WEATHER ROUNDUP FOR MINNESOTA
NATIONAL WEATHER SERVICE TWIN CITIES/CHANHASSEN MN
900 PM CDT WED SEP 20 2017


NOTE: "FAIR" INDICATES FEW OR NO CLOUDS BELOW 12,000 FEET WITH NO
SIGNIFICANT WEATHER AND/OR OBSTRUCTIONS TO VISIBILITY. N/A MEANS
CURRENT SKY AND/OR WEATHER CONDITIONS ARE NOT AVAILABLE.

MNZ060>063-068>070-210300-
   Twin Cities Metro

CITY           SKY/WX    TMP DP  RH WIND       PRES   REMARKS
TWIN CITIES    CLEAR     66  52  60 NW5       29.89R
ST PAUL        CLEAR     62  52  69 MISG      29.89R
CRYSTAL        CLEAR     59  49  69 CALM      29.88R
BLAINE         CLEAR     61  50  67 CALM      29.89R
LAKEVILLE      CLEAR     55  52  88 W3        29.90R
EDEN PRAIRIE   CLEAR     63  51  65 NW6       29.88R
SOUTH ST PAUL  CLEAR     64  50  61 CALM      29.89R
LAKE ELMO      FAIR      55  54  94 CALM      29.90R
$$
MNZ001>005-007-008-013>017-022>024-027-028-210300-
   Northwest Minnesota

CITY           SKY/WX    TMP DP  RH WIND       PRES   REMARKS
BEMIDJI        CLEAR     54  44  68 S6        29.87R
HALLOCK        CLOUDY    54  45  71 S8        29.75R
ROSEAU         CLEAR     55  46  71 S8        29.79R
WARROAD        CLEAR     55  46  71 S8        29.80S
THIEF RVR FALL CLEAR     56  43  61 S9        29.83R
CROOKSTON      CLEAR     61  45  55 S10       29.81R
FOSSTON        CLEAR     54  45  71 S8        29.86R
DETROIT LAKES  CLEAR     57  46  67 SE3       29.89R
MOORHEAD       CLEAR     57  45  62 CALM      29.85R
PARK RAPIDS    CLEAR     58  47  66 CALM      29.88R
MAHNOMEN       FAIR      55  46  71 S8        29.86R
$$
MNZ006-009>011-018-025>026-210300-
   North Central Minnesota

CITY           SKY/WX    TMP DP  RH WIND       PRES   REMARKS
BAUDETTE       CLEAR     55  44  66 S7        29.82R
FLAG ISLAND    CLEAR     61  52  72 S8        29.77R
INTL FALLS     CLEAR     48  43  82 CALM      29.86R
WASKISH        CLEAR     54  45  71 S5        29.86R
BIG FORK       CLEAR     46  46 100 CALM      29.89R
LONGVILLE      CLEAR     46  45  93 CALM      29.89R
GRAND RAPIDS   CLEAR     49  48  97 S3        29.91R
CRANE LAKE     CLEAR     45  45 100 CALM      29.90R
ORR            CLEAR     50  45  81 CALM      29.87R
COOK           CLEAR     48  46  93 CALM      29.90R
WALKER         FAIR      49  47  93 CALM      29.88R
$$
MNZ012-019>021-037-210300-
   Northeast Minnesota

CITY           SKY/WX    TMP DP  RH WIND       PRES   REMARKS
DULUTH         CLEAR     57  47  69 NW6       29.89R
ELY            CLEAR     52  48  87 CALM      29.90R
HIBBING        CLEAR     46  46 100 NW3       29.89R
EVELETH        CLEAR     49  47  92 CALM      29.91R
DULUTH HARBOR  CLEAR     63  54  72 SW6       29.88S
TWO HARBORS    CLEAR     57  52  82 NW3       29.87S
SILVER BAY     CLEAR     52  52 100 CALM      29.87R
GRAND MARAIS     N/A     59  56  89 NW5       29.86R
G MARAIS ARPRT   N/A     54  48  82 CALM      29.90R
$$
MNZ029>031-032-039>041-046>048-054>057-064-210300-
   West Central Minnesota

CITY           SKY/WX    TMP DP  RH WIND       PRES   REMARKS
FERGUS FALLS   CLEAR     57  46  67 SE6       29.88R
WHEATON        CLEAR     55  46  71 SE8       29.88S
MORRIS         CLEAR     57  48  72 SE6       29.88R
ALEXANDRIA     CLEAR     56  48  74 S5        29.91R
ELBOW LAKE     FAIR      55  47  73 CALM      29.89R
WADENA         CLEAR     52  46  82 CALM      29.89R
GLENWOOD       CLEAR     55  50  82 S3        29.91R
APPLETON       CLEAR     55  48  76 SE5       29.89R
BENSON         CLEAR     55  46  71 S3        29.91R
ORTONVILLE     CLEAR     55  46  71 NE5       29.88R
MADISON        CLEAR     59  52  77 CALM      29.89R
WILLMAR        FAIR      57  52  82 CALM      29.92R
$$
MNZ033>034-036-042>043-049>051-058-059-210300-
   Central Minnesota

CITY           SKY/WX    TMP DP  RH WIND       PRES   REMARKS
ST CLOUD       CLEAR     51  50  96 CALM      29.90R
SAUK CENTRE    FAIR      54  49  81 SE3       29.91R
PAYNESVILLE    CLEAR     53  50  90 CALM      29.91R
AITKIN         CLEAR     48  46  93 CALM      29.89S
PINE RIVER     CLEAR     46  45  93 CALM      29.93R
BRAINERD       CLEAR     52  49  89 CALM      29.90R
LONG PRAIRIE   FAIR      52  48  87 CALM      29.91R
LITTLE FALLS   CLEAR     50  46  87 CALM      29.91R
LITCHFIELD     CLEAR     55  54  94 CALM      29.92R
BUFFALO        CLEAR     55  49  79 CALM      29.91R
MAPLE LAKE     CLEAR     53  51  95 CALM      29.91R
HUTCHINSON     CLEAR     54  52  94 CALM      29.92R
$$
MNZ037-044-045-052-053-210300-
   East Central Minnesota

CITY           SKY/WX    TMP DP  RH WIND       PRES   REMARKS
PRINCETON      CLEAR     52  48  87 CALM      29.91R
MORA           CLEAR     50  46  87 CALM      29.92R
CAMBRIDGE      CLEAR     55  46  71 CALM      29.90R
RUSH CITY      PTCLDY    51  49  93 CALM      29.90R
MOOSE LAKE     CLEAR     50  46  87 CALM      29.89R
HINCKLEY       FAIR      52  52 100 CALM      29.90R
CLOQUET        CLEAR     52  46  82 CALM      29.90R
MCGREGOR       CLEAR     55  46  71 W5        29.89S
$$
MNZ071>073-080-081-089-090-097-098-210300-
   Southwest Minnesota

CITY           SKY/WX    TMP DP  RH WIND       PRES   REMARKS
MONTEVIDEO     CLEAR     57  48  72 S3        29.90R
GRANITE FALLS  CLEAR     60  52  73 E3        29.91R
CANBY          CLEAR     54  50  85 W3        29.90R
MARSHALL       CLEAR     59  50  72 S3        29.90R
REDWOOD FALLS  CLEAR     63  48  58 CALM      29.90R
OLIVIA         CLEAR     55  50  82 CALM      29.90R
PIPESTONE      CLEAR     61  46  59 CALM      29.92R
WINDOM         CLEAR     55  50  82 CALM      29.91R
WORTHINGTON    CLEAR     56  49  77 CALM      29.92R
JACKSON        CLEAR     57  52  82 CALM      29.91R
TRACY          CLEAR     59  52  76 SW3       29.91R
SLAYTON        CLEAR     55  49  80 CALM      29.92R
$$
MNZ065>067-074>077-082>085-091>093-210300-
   South Central Minnesota

CITY           SKY/WX    TMP DP  RH WIND       PRES   REMARKS
MANKATO        CLEAR     60  51  72 N5        29.90R
NEW ULM        CLEAR     63  48  59 CALM      29.90R
ST JAMES       CLEAR     57  52  82 CALM      29.91R
FAIRMONT       CLEAR     59  53  80 CALM      29.90R
GLENCOE        CLEAR     57  54  89 NW3       29.90R
FARIBAULT      CLEAR     55  54  94 CALM      29.91R
OWATONNA       CLEAR     55  52  88 CALM      29.90R
WASECA         CLEAR     55  52  88 CALM      29.91R
ALBERT LEA     CLEAR     63  57  82 CALM      29.90R
$$
MNZ078>079-086>088-094>096-210300-
   Southeast Minnesota

CITY           SKY/WX    TMP DP  RH WIND       PRES   REMARKS
ROCHESTER      CLEAR     63  54  72 NW5       29.90R
RED WING       CLEAR     59  54  82 N3        29.88R
STANTON        CLEAR     57  54  89 CALM      29.88R
DODGE CENTER   CLEAR     57  52  82 CALM      29.90R
WINONA         CLEAR     63  59  88 CALM      29.88R
AUSTIN         CLEAR     61  54  77 CALM      29.89S
PRESTON        CLEAR     62  55  78 NW3       29.89S
$$
ABBREVIATIONS USED IN REMARKS
   TC - TEMPERATURES IN CELSIUS
  WCI - WIND CHILL INDEX
   HX - HEAT INDEX
  VSB - VISIBILITY
$$




USA.gov is the U.S. government's official web portal to all federal, state and local government web resources and services.